Zurück zum Katalog

STARLINK-32931

AktivKommunikationVLEO
NORAD 63199·PAYLOAD·🇺🇸 United States

Gestartet Mar 13, 2025 von Cape Canaveral Space Force Station

Loading…

Nächste Überflüge (nächste 24 Stunden)

TLE

AktuellSource: CelesTrak SupGP

Epoche: Sep 14, 2026, 13:53 UTC

1 63199C 25048S   26257.57895833  .00015793  00000+0  57224-3 0  2571
2 63199  43.0003  98.5522 0001058 238.0054  10.9589 15.27557854    19

Verfolge STARLINK-32931 in Echtzeit mit AllMySat

Download on the App Store